Hourly Weather Gok

Today, 25 October, Sunday

Time Temperature Precipitation Wind Pressure Humidity
00:00 +14°C° 0 mm 3 mps 756 mmHg 56%
01:00 +13°C° 0 mm 3 mps 756 mmHg 57%
02:00 +13°C° 0 mm 3 mps 756 mmHg 59%
03:00 +13°C° 0 mm 3 mps 756 mmHg 60%
04:00 +13°C° 0 mm 3 mps 756 mmHg 61%
05:00 +13°C° 0 mm 3 mps 756 mmHg 61%
06:00 +12°C° 0 mm 3 mps 756 mmHg 62%
07:00 +13°C° 0 mm 3 mps 756 mmHg 61%
08:00 +15°C° 0 mm 4 mps 757 mmHg 59%
09:00 +17°C° 0 mm 4 mps 757 mmHg 57%
10:00 +18°C° 0 mm 4 mps 757 mmHg 58%
11:00 +20°C° 0 mm 4 mps 757 mmHg 59%
12:00 +22°C° 0 mm 4 mps 756 mmHg 60%
13:00 +22°C° 0 mm 4 mps 756 mmHg 57%
14:00 +22°C° 0 mm 4 mps 756 mmHg 54%
15:00 +23°C° 0 mm 4 mps 756 mmHg 52%
16:00 +21°C° 0 mm 3 mps 757 mmHg 55%
17:00 +20°C° 0 mm 3 mps 757 mmHg 58%
18:00 +19°C° 0 mm 2 mps 757 mmHg 61%
19:00 +18°C° 0 mm 2 mps 757 mmHg 60%
20:00 +17°C° 0 mm 2 mps 758 mmHg 60%
21:00 +17°C° 0 mm 2 mps 758 mmHg 60%
22:00 +16°C° 0 mm 2 mps 758 mmHg 60%
23:00 +16°C° 0 mm 2 mps 758 mmHg 61%

Tomorrow, 26 October, Monday

Time Temperature Precipitation Wind Pressure Humidity
00:00 +16°C° 0 mm 2 mps 758 mmHg 62%
01:00 +15°C° 0 mm 2 mps 759 mmHg 65%
02:00 +14°C° 0 mm 3 mps 759 mmHg 68%
03:00 +13°C° 0 mm 3 mps 759 mmHg 71%
04:00 +13°C° 0 mm 3 mps 759 mmHg 73%
05:00 +12°C° 0 mm 4 mps 759 mmHg 75%
06:00 +12°C° 0 mm 4 mps 759 mmHg 76%
07:00 +13°C° 0 mm 4 mps 760 mmHg 72%
08:00 +14°C° 0 mm 5 mps 760 mmHg 68%
09:00 +14°C° 0 mm 5 mps 760 mmHg 64%
10:00 +16°C° 0 mm 5 mps 760 mmHg 59%
11:00 +17°C° 0 mm 5 mps 760 mmHg 55%
12:00 +19°C° 0 mm 5 mps 759 mmHg 50%
13:00 +20°C° 0 mm 5 mps 759 mmHg 49%
14:00 +20°C° 0 mm 5 mps 759 mmHg 48%
15:00 +20°C° 0 mm 6 mps 759 mmHg 48%
16:00 +19°C° 0 mm 5 mps 759 mmHg 50%
17:00 +16°C° 0 mm 5 mps 759 mmHg 53%
18:00 +15°C° 0 mm 5 mps 759 mmHg 55%
19:00 +15°C° 0 mm 5 mps 759 mmHg 54%
20:00 +14°C° 0 mm 5 mps 759 mmHg 54%
21:00 +14°C° 0 mm 6 mps 759 mmHg 53%
22:00 +14°C° 0 mm 6 mps 759 mmHg 53%
23:00 +13°C° 0 mm 6 mps 759 mmHg 52%

Day after tomorrow, 27 October, Tuesday

Time Temperature Precipitation Wind Pressure Humidity
00:00 +13°C° 0 mm 6 mps 760 mmHg 51%
01:00 +13°C° 0 mm 6 mps 760 mmHg 51%
02:00 +11°C° 0 mm 6 mps 760 mmHg 51%
03:00 +11°C° 0 mm 6 mps 760 mmHg 51%
04:00 +11°C° 0 mm 6 mps 760 mmHg 53%
05:00 +10°C° 0 mm 6 mps 760 mmHg 55%
06:00 +10°C° 0 mm 6 mps 760 mmHg 57%
07:00 +11°C° 0 mm 7 mps 760 mmHg 54%
08:00 +11°C° 0 mm 7 mps 760 mmHg 52%
09:00 +12°C° 0 mm 8 mps 760 mmHg 50%
10:00 +13°C° 0 mm 8 mps 761 mmHg 48%
11:00 +15°C° 0 mm 8 mps 761 mmHg 47%
12:00 +16°C° 0 mm 8 mps 761 mmHg 45%
13:00 +16°C° 0 mm 8 mps 761 mmHg 44%
14:00 +16°C° 0 mm 8 mps 760 mmHg 43%
15:00 +17°C° 0 mm 8 mps 760 mmHg 41%
16:00 +16°C° 0 mm 8 mps 760 mmHg 42%
17:00 +15°C° 0 mm 7 mps 761 mmHg 42%
18:00 +14°C° 0 mm 7 mps 761 mmHg 43%
19:00 +13°C° 0 mm 8 mps 761 mmHg 46%
20:00 +12°C° 0 mm 8 mps 761 mmHg 50%
21:00 +12°C° 0 mm 8 mps 761 mmHg 53%
22:00 +11°C° 0 mm 8 mps 761 mmHg 58%
23:00 +11°C° 0 mm 8 mps 761 mmHg 63%

28 October, Wednesday

Time Temperature Precipitation Wind Pressure Humidity
00:00 +10°C° 0 mm 9 mps 761 mmHg 68%
01:00 +10°C° 0 mm 9 mps 761 mmHg 70%
02:00 +8°C° 0 mm 9 mps 761 mmHg 72%
03:00 +8°C° 0 mm 9 mps 761 mmHg 74%
04:00 +8°C° 0 mm 9 mps 761 mmHg 75%
05:00 +8°C° 0 mm 9 mps 761 mmHg 76%
06:00 +7°C° 0 mm 9 mps 761 mmHg 76%
07:00 +8°C° 0 mm 9 mps 762 mmHg 74%
08:00 +8°C° 0 mm 10 mps 762 mmHg 73%
09:00 +9°C° 0 mm 10 mps 762 mmHg 71%
10:00 +11°C° 0 mm 10 mps 762 mmHg 67%
11:00 +12°C° 0 mm 10 mps 761 mmHg 62%
12:00 +13°C° 0 mm 10 mps 761 mmHg 58%
13:00 +14°C° 0 mm 10 mps 761 mmHg 55%
14:00 +16°C° 0 mm 10 mps 761 mmHg 52%
15:00 +16°C° 0 mm 10 mps 761 mmHg 50%
16:00 +15°C° 0 mm 9 mps 761 mmHg 51%
17:00 +13°C° 0 mm 9 mps 761 mmHg 52%
18:00 +12°C° 0 mm 8 mps 761 mmHg 52%
19:00 +12°C° 0 mm 8 mps 761 mmHg 55%
20:00 +11°C° 0 mm 9 mps 761 mmHg 57%
21:00 +10°C° 0 mm 9 mps 761 mmHg 59%
22:00 +10°C° 0 mm 9 mps 761 mmHg 63%
23:00 +8°C° 0 mm 9 mps 760 mmHg 66%

29 October, Thursday

Time Temperature Precipitation Wind Pressure Humidity
00:00 +8°C° 0 mm 9 mps 760 mmHg 70%
01:00 +8°C° 0 mm 9 mps 760 mmHg 71%
02:00 +8°C° 0 mm 9 mps 760 mmHg 72%
03:00 +8°C° 0 mm 9 mps 760 mmHg 74%
04:00 +8°C° 0 mm 9 mps 760 mmHg 73%
05:00 +8°C° 0 mm 9 mps 760 mmHg 73%
06:00 +8°C° 0 mm 9 mps 760 mmHg 73%
07:00 +10°C° 0 mm 9 mps 760 mmHg 70%
08:00 +11°C° 0 mm 9 mps 759 mmHg 67%
09:00 +11°C° 0 mm 10 mps 759 mmHg 63%
10:00 +13°C° 0 mm 9 mps 759 mmHg 59%
11:00 +16°C° 0 mm 9 mps 759 mmHg 54%
12:00 +17°C° 0 mm 9 mps 759 mmHg 49%
13:00 +18°C° 0 mm 9 mps 759 mmHg 48%
14:00 +18°C° 0 mm 9 mps 758 mmHg 47%
15:00 +19°C° 0 mm 9 mps 758 mmHg 46%
16:00 +18°C° 0 mm 8 mps 758 mmHg 49%
17:00 +17°C° 0 mm 8 mps 758 mmHg 52%
18:00 +16°C° 0 mm 7 mps 758 mmHg 55%
19:00 +15°C° 0 mm 7 mps 758 mmHg 58%
20:00 +15°C° 0 mm 7 mps 758 mmHg 62%
21:00 +14°C° 0 mm 7 mps 758 mmHg 65%
22:00 +12°C° 0 mm 7 mps 758 mmHg 69%
23:00 +12°C° 0 mm 7 mps 758 mmHg 72%

30 October, Friday

Time Temperature Precipitation Wind Pressure Humidity
00:00 +11°C° 0 mm 6 mps 758 mmHg 76%
01:00 +11°C° 0 mm 6 mps 758 mmHg 77%
02:00 +11°C° 0 mm 6 mps 758 mmHg 78%
03:00 +11°C° 0 mm 6 mps 758 mmHg 79%
04:00 +12°C° 0 mm 5 mps 758 mmHg 79%
05:00 +12°C° 0 mm 5 mps 758 mmHg 79%
06:00 +12°C° 0 mm 5 mps 758 mmHg 79%
07:00 +13°C° 0 mm 5 mps 758 mmHg 77%
08:00 +13°C° 0 mm 5 mps 758 mmHg 75%
09:00 +14°C° 0 mm 6 mps 758 mmHg 73%
10:00 +16°C° 0 mm 5 mps 758 mmHg 68%
11:00 +18°C° 0 mm 4 mps 758 mmHg 63%
12:00 +19°C° 0 mm 4 mps 758 mmHg 58%
13:00 +20°C° 0 mm 3 mps 758 mmHg 56%
14:00 +20°C° 0 mm 3 mps 758 mmHg 54%
15:00 +21°C° 0 mm 2 mps 758 mmHg 53%
16:00 +19°C° 0 mm 2 mps 758 mmHg 57%
17:00 +18°C° 0 mm 2 mps 758 mmHg 62%
18:00 +17°C° 0 mm 3 mps 758 mmHg 66%
19:00 +17°C° 0.1 mm 3 mps 758 mmHg 68%
20:00 +17°C° 0.1 mm 3 mps 758 mmHg 70%
21:00 +16°C° 0.1 mm 2 mps 758 mmHg 72%
22:00 +16°C° 0.1 mm 2 mps 758 mmHg 72%
23:00 +17°C° 0.1 mm 2 mps 758 mmHg 71%
Show more